Tracking 35051 objects as of 17-Aug-2026
HD Live streaming from Space Station
objects crossing your sky now

SPACEBEENZ-7


SPACEBEENZ-7 is no longer on orbit


NORAD ID: 48889
Int'l Code: 2021-059L
Launch date: June 30, 2021
Source: New Zealand (NZ)
Launch site: AIR FORCE EASTERN TEST RANGE (AFETR)
Decay date: 2023-09-12
Your satellite tracking list
Your tracking list is empty




NASA's NSSDC Master Catalog

Two Line Element Set (TLE):
1 48889U 21059L   23252.36340224  .04497375  25304-5  24025-2 0  9995
2 48889  97.5584  40.2257 0014660 281.3392  78.6249 16.19680953122865
Source of the keplerian elements: AFSPC